This demonstration page uses our WeatherBlox Daily Observations layout. Learn more.

Left ArrowRight Arrow

Hourly Observations for September 24, 2022

Temp ( °F °C ) Dew Point ( °F °C ) Humidity (%) Winds ( mph kmh ) Pressure ( in mb ) Visibility ( mi km ) Precip ( " mm )
12:53 am 00:53 Mostly Clear 59 15 39 3.9 47 47 WSW 15 24 29.91 1013 10 16 0.00 0.00
1:53 am 01:53 Clear 59 15 39 3.9 47 47 WSW 18 30 29.91 1013 10 16 0.00 0.00
2:53 am 02:53 Mostly Clear 57 13.9 39 3.9 51 51 WSW 17 28 29.91 1013 10 16 0.00 0.00
3:53 am 03:53 Mostly Cloudy 57 13.9 39 3.9 51 51 W 16 26 29.93 1014 10 16 0.00 0.00
4:53 am 04:53 Clear 54 12.2 39 3.9 57 57 W 12 19 29.96 1015 10 16 0.00 0.00
5:53 am 05:53 Clear 51 10.6 39 3.9 63 63 SSW 14 22 29.99 1016 10 16 0.00 0.00
6:53 am 06:53 Clear 50 10 39 3.9 66 66 WSW 13 20 30.02 1017 10 16 0.00 0.00
7:53 am 07:53 Sunny 51 10.6 39 3.9 63 63 SW 9 15 30.06 1018 10 16 0.00 0.00
8:53 am 08:53 Sunny 56 13.3 39 3.9 53 53 SW 12 19 30.08 1019 10 16 0.00 0.00
9:53 am 09:53 Sunny 61 16.1 40 4.4 46 46 WSW 13 20 30.09 1019 10 16 0.00 0.00
10:53 am 10:53 Sunny 69 20.6 37 2.8 31 31 WNW 14 22 30.09 1019 10 16 0.00 0.00
11:53 am 11:53 Sunny 72 22.2 33 0.6 24 24 NW 14 22 30.09 1019 10 16 0.00 0.00
12:53 pm 12:53 Sunny 73 22.8 33 0.6 23 23 NW 15 24 30.10 1019 10 16 0.00 0.00
1:53 pm 13:53 Sunny 74 23.3 32 0 21 21 NW 13 20 30.10 1019 10 16 0.00 0.00
2:53 pm 14:53 Sunny 75 23.9 32 0 21 21 NW 14 22 30.11 1020 10 16 0.00 0.00
3:53 pm 15:53 Sunny 76 24.4 33 0.6 21 21 W 10 17 30.10 1019 10 16 0.00 0.00
4:53 pm 16:53 Sunny 75 23.9 33 0.6 22 22 W 9 15 30.10 1019 10 16 0.00 0.00
5:53 pm 17:53 Sunny 74 23.3 33 0.6 22 22 W 12 19 30.11 1020 10 16 0.00 0.00
6:53 pm 18:53 Sunny 70 21.1 34 1.1 26 26 NW 6 9 30.13 1020 10 16 0.00 0.00
7:53 pm 19:53 Clear 63 17.2 35 1.7 35 35 NNW 3 6 30.17 1022 10 16 0.00 0.00
8:53 pm 20:53 Clear 58 14.4 35 1.7 42 42 Calm 30.19 1022 10 16 0.00 0.00
9:53 pm 21:53 Clear 49 9.4 34 1.1 56 56 WSW 7 11 30.22 1023 10 16 0.00 0.00
10:53 pm 22:53 Clear 46 7.8 32 0 58 58 SSW 6 9 30.22 1023 10 16 0.00 0.00
11:53 pm 23:53 Clear 46 7.8 34 1.1 63 63 SW 5 7 30.23 1024 10 16 0.00 0.00

Powered by AerisWeather